{"data":{"norad_id":67017,"epoch":"2026-05-25T00:32:19.940928Z","epoch_age_seconds":69512,"freshness":"FRESH","line1":"1 67017U 25293Q   26145.02245302  .00002244  00000+0  19575-3 0  9999","line2":"2 67017  70.0008 261.9136 0003218 270.5563  89.5227 14.98334873 26324","mean_motion":14.98334873,"eccentricity":0.0003218,"inclination_deg":70.0008,"raan_deg":261.9136,"arg_perigee_deg":270.5563,"mean_anomaly_deg":89.5227,"bstar":0.00019575,"rev_number":2632,"period_min":96.106686559113,"perigee_km":569.80425441173,"apogee_km":574.27738885774,"semimajor_km":6950.1778216347,"source":"CELESTRAK","updated_at":"2026-05-25T13:38:21.432548Z"}}